Time,TemperatureF,DewpointF,PressureIn,WindDirection,WindDirectionDegrees,WindSpeedMPH,WindSpeedGustMPH,Humidity,HourlyPrecipIn,Conditions,Clouds,dailyrainin,SolarRadiationWatts/m^2,SoftwareType,DateUTC
2013-04-07 00:03:00,47.0,23.0,-100.00,South,169,6.0,12.0,38,0.00,,,0.00,0.000000,,2013-04-07 04:03:00,
2013-04-07 00:32:00,46.0,22.0,-100.00,SSE,162,8.0,14.0,39,0.00,,,0.00,0.000000,,2013-04-07 04:32:00,
2013-04-07 00:43:00,46.0,22.0,-100.00,SSE,162,8.0,14.0,39,0.00,,,0.00,0.000000,,2013-04-07 04:43:00,
2013-04-07 00:53:00,46.0,22.0,-100.00,SSE,162,8.0,14.0,39,0.00,,,0.00,0.000000,,2013-04-07 04:53:00,
2013-04-07 01:02:00,46.0,22.0,-100.00,SSE,162,8.0,14.0,39,0.00,,,0.00,0.000000,,2013-04-07 05:02:00,
2013-04-07 01:12:00,46.0,22.0,-100.00,SSE,162,8.0,14.0,39,0.00,,,0.00,0.000000,,2013-04-07 05:12:00,
2013-04-07 01:34:00,46.0,23.0,-100.00,South,172,6.0,14.0,40,0.00,,,0.00,0.000000,,2013-04-07 05:34:00,
2013-04-07 01:43:00,46.0,23.0,-100.00,South,172,6.0,14.0,40,0.00,,,0.00,0.000000,,2013-04-07 05:43:00,
2013-04-07 01:53:00,46.0,23.0,-100.00,South,172,6.0,14.0,40,0.00,,,0.00,0.000000,,2013-04-07 05:53:00,
2013-04-07 02:02:00,46.0,23.0,-100.00,South,172,6.0,14.0,40,0.00,,,0.00,0.000000,,2013-04-07 06:02:00,
2013-04-07 02:12:00,46.0,23.0,-100.00,South,172,6.0,14.0,40,0.00,,,0.00,0.000000,,2013-04-07 06:12:00,
2013-04-07 02:43:00,47.0,26.0,-100.00,SSE,165,8.0,12.0,43,0.00,,,0.00,0.000000,,2013-04-07 06:43:00,
2013-04-07 02:53:00,47.0,26.0,-100.00,SSE,165,8.0,12.0,43,0.00,,,0.00,0.000000,,2013-04-07 06:53:00,
2013-04-07 03:02:00,47.0,26.0,-100.00,SSE,165,8.0,12.0,43,0.00,,,0.00,0.000000,,2013-04-07 07:02:00,
2013-04-07 03:12:00,47.0,26.0,-100.00,SSE,165,8.0,12.0,43,0.00,,,0.00,0.000000,,2013-04-07 07:12:00,
2013-04-07 03:33:00,45.0,27.0,-100.00,SSE,167,8.0,12.0,48,0.00,,,0.00,0.000000,,2013-04-07 07:33:00,
2013-04-07 03:42:00,45.0,27.0,-100.00,SSE,167,8.0,12.0,48,0.00,,,0.00,0.000000,,2013-04-07 07:42:00,
2013-04-07 03:52:00,45.0,27.0,-100.00,SSE,167,8.0,12.0,48,0.00,,,0.00,0.000000,,2013-04-07 07:52:00,
2013-04-07 04:02:00,45.0,27.0,-100.00,SSE,167,8.0,12.0,48,0.00,,,0.00,0.000000,,2013-04-07 08:02:00,
2013-04-07 04:12:00,45.0,27.0,-100.00,SSE,167,8.0,12.0,48,0.00,,,0.00,0.000000,,2013-04-07 08:12:00,
2013-04-07 04:33:00,44.0,27.0,-100.00,SSE,161,8.0,13.0,51,0.00,,,0.00,0.000000,,2013-04-07 08:33:00,
2013-04-07 04:43:00,44.0,27.0,-100.00,SSE,161,8.0,13.0,51,0.00,,,0.00,0.000000,,2013-04-07 08:43:00,
2013-04-07 04:53:00,44.0,27.0,-100.00,SSE,161,8.0,13.0,51,0.00,,,0.00,0.000000,,2013-04-07 08:53:00,
2013-04-07 05:02:00,44.0,27.0,-100.00,SSE,161,8.0,13.0,51,0.00,,,0.00,0.000000,,2013-04-07 09:02:00,
2013-04-07 05:12:00,44.0,27.0,-100.00,SSE,161,8.0,13.0,51,0.00,,,0.00,0.000000,,2013-04-07 09:12:00,
2013-04-07 05:13:00,43.0,28.0,-100.00,SSE,159,7.0,14.0,55,0.00,,,0.00,0.000000,,2013-04-07 09:13:00,
2013-04-07 05:34:00,43.0,28.0,-100.00,SSE,159,7.0,14.0,55,0.00,,,0.00,0.000000,,2013-04-07 09:34:00,
2013-04-07 05:45:00,43.0,28.0,-100.00,SSE,159,7.0,14.0,55,0.00,,,0.00,0.000000,,2013-04-07 09:45:00,
2013-04-07 05:54:00,43.0,28.0,-100.00,SSE,159,7.0,14.0,55,0.00,,,0.00,0.000000,,2013-04-07 09:54:00,
2013-04-07 06:04:00,43.0,28.0,-100.00,SSE,159,7.0,14.0,55,0.00,,,0.00,0.000000,,2013-04-07 10:04:00,
2013-04-07 06:13:00,42.0,29.0,-100.00,SSE,158,7.0,12.0,60,0.00,,,0.00,0.000000,,2013-04-07 10:13:00,
2013-04-07 06:43:00,42.0,29.0,-100.00,SSE,158,7.0,12.0,60,0.00,,,0.00,0.000000,,2013-04-07 10:43:00,
2013-04-07 06:54:00,42.0,29.0,-100.00,SSE,158,7.0,12.0,60,0.00,,,0.00,0.000000,,2013-04-07 10:54:00,
2013-04-07 07:03:00,42.0,29.0,-100.00,SSE,158,7.0,12.0,60,0.00,,,0.00,0.000000,,2013-04-07 11:03:00,
2013-04-07 07:33:00,41.0,29.0,-100.00,SSE,152,5.0,10.0,61,0.00,,,0.00,6.000000,,2013-04-07 11:33:00,
2013-04-07 07:43:00,41.0,29.0,-100.00,SSE,152,5.0,10.0,61,0.00,,,0.00,6.000000,,2013-04-07 11:43:00,
2013-04-07 07:53:00,41.0,29.0,-100.00,SSE,152,5.0,10.0,61,0.00,,,0.00,6.000000,,2013-04-07 11:53:00,
2013-04-07 08:03:00,41.0,29.0,-100.00,SSE,152,5.0,10.0,61,0.00,,,0.00,6.000000,,2013-04-07 12:03:00,
2013-04-07 08:12:00,41.0,29.0,-100.00,SSE,152,5.0,10.0,61,0.00,,,0.00,6.000000,,2013-04-07 12:12:00,
2013-04-07 08:13:00,45.0,30.0,-100.00,SSE,165,7.0,11.0,56,0.00,,,0.00,119.000000,,2013-04-07 12:13:00,
2013-04-07 08:43:00,45.0,30.0,-100.00,SSE,165,7.0,11.0,56,0.00,,,0.00,119.000000,,2013-04-07 12:43:00,
2013-04-07 08:54:00,45.0,30.0,-100.00,SSE,165,7.0,11.0,56,0.00,,,0.00,119.000000,,2013-04-07 12:54:00,
2013-04-07 09:05:00,45.0,30.0,-100.00,SSE,165,7.0,11.0,56,0.00,,,0.00,119.000000,,2013-04-07 13:05:00,
2013-04-07 09:13:00,49.0,31.0,-100.00,South,176,9.0,15.0,49,0.00,,,0.00,311.000000,,2013-04-07 13:13:00,
2013-04-07 09:33:00,49.0,31.0,-100.00,South,176,9.0,15.0,49,0.00,,,0.00,311.000000,,2013-04-07 13:33:00,
2013-04-07 09:43:00,49.0,31.0,-100.00,South,176,9.0,15.0,49,0.00,,,0.00,311.000000,,2013-04-07 13:43:00,
2013-04-07 09:53:00,49.0,31.0,-100.00,South,176,9.0,15.0,49,0.00,,,0.00,311.000000,,2013-04-07 13:53:00,
2013-04-07 10:02:00,49.0,31.0,-100.00,South,176,9.0,15.0,49,0.00,,,0.00,311.000000,,2013-04-07 14:02:00,
2013-04-07 10:13:00,54.0,34.0,-100.00,South,178,10.0,17.0,46,0.00,,,0.00,514.000000,,2013-04-07 14:13:00,
2013-04-07 10:33:00,54.0,34.0,-100.00,South,178,10.0,17.0,46,0.00,,,0.00,514.000000,,2013-04-07 14:33:00,
2013-04-07 10:44:00,54.0,34.0,-100.00,South,178,10.0,17.0,46,0.00,,,0.00,514.000000,,2013-04-07 14:44:00,
2013-04-07 10:55:00,54.0,34.0,-100.00,South,178,10.0,17.0,46,0.00,,,0.00,514.000000,,2013-04-07 14:55:00,
2013-04-07 11:03:00,54.0,34.0,-100.00,South,178,10.0,17.0,46,0.00,,,0.00,514.000000,,2013-04-07 15:03:00,
2013-04-07 11:13:00,58.0,36.0,-100.00,SSE,165,9.0,18.0,44,0.00,,,0.00,566.000000,,2013-04-07 15:13:00,
2013-04-07 11:35:00,58.0,36.0,-100.00,SSE,165,9.0,18.0,44,0.00,,,0.00,566.000000,,2013-04-07 15:35:00,
2013-04-07 11:45:00,58.0,36.0,-100.00,SSE,165,9.0,18.0,44,0.00,,,0.00,566.000000,,2013-04-07 15:45:00,
2013-04-07 11:55:00,58.0,36.0,-100.00,SSE,165,9.0,18.0,44,0.00,,,0.00,566.000000,,2013-04-07 15:55:00,
2013-04-07 12:05:00,58.0,36.0,-100.00,SSE,165,9.0,18.0,44,0.00,,,0.00,566.000000,,2013-04-07 16:05:00,
2013-04-07 12:13:00,61.0,38.0,-100.00,South,182,12.0,20.0,42,0.00,,,0.00,609.000000,,2013-04-07 16:13:00,
2013-04-07 12:44:00,61.0,38.0,-100.00,South,182,12.0,20.0,42,0.00,,,0.00,609.000000,,2013-04-07 16:44:00,
2013-04-07 12:54:00,61.0,38.0,-100.00,South,182,12.0,20.0,42,0.00,,,0.00,609.000000,,2013-04-07 16:54:00,
2013-04-07 13:05:00,61.0,38.0,-100.00,South,182,12.0,20.0,42,0.00,,,0.00,609.000000,,2013-04-07 17:05:00,
2013-04-07 13:13:00,63.0,36.0,-100.00,South,176,11.0,20.0,37,0.00,,,0.00,621.000000,,2013-04-07 17:13:00,
2013-04-07 13:44:00,63.0,36.0,-100.00,South,176,11.0,20.0,37,0.00,,,0.00,621.000000,,2013-04-07 17:44:00,
2013-04-07 13:54:00,63.0,36.0,-100.00,South,176,11.0,20.0,37,0.00,,,0.00,621.000000,,2013-04-07 17:54:00,
2013-04-07 14:03:00,63.0,36.0,-100.00,South,176,11.0,20.0,37,0.00,,,0.00,621.000000,,2013-04-07 18:03:00,
2013-04-07 14:13:00,67.0,40.0,-100.00,SSE,168,12.0,17.0,37,0.00,,,0.00,476.000000,,2013-04-07 18:13:00,
2013-04-07 14:44:00,67.0,40.0,-100.00,SSE,168,12.0,17.0,37,0.00,,,0.00,476.000000,,2013-04-07 18:44:00,
2013-04-07 14:53:00,67.0,40.0,-100.00,SSE,168,12.0,17.0,37,0.00,,,0.00,476.000000,,2013-04-07 18:53:00,
2013-04-07 15:03:00,67.0,40.0,-100.00,SSE,168,12.0,17.0,37,0.00,,,0.00,476.000000,,2013-04-07 19:03:00,
2013-04-07 15:13:00,68.0,39.0,-100.00,SSW,199,14.0,23.0,34,0.00,,,0.00,481.000000,,2013-04-07 19:13:00,
2013-04-07 15:43:00,68.0,39.0,-100.00,SSW,199,14.0,23.0,34,0.00,,,0.00,481.000000,,2013-04-07 19:43:00,
2013-04-07 15:55:00,68.0,39.0,-100.00,SSW,199,14.0,23.0,34,0.00,,,0.00,481.000000,,2013-04-07 19:55:00,
2013-04-07 16:03:00,68.0,39.0,-100.00,SSW,199,14.0,23.0,34,0.00,,,0.00,481.000000,,2013-04-07 20:03:00,
2013-04-07 16:13:00,70.0,39.0,-100.00,South,189,14.0,21.0,32,0.00,,,0.00,543.000000,,2013-04-07 20:13:00,
2013-04-07 16:44:00,70.0,39.0,-100.00,South,189,14.0,21.0,32,0.00,,,0.00,543.000000,,2013-04-07 20:44:00,
2013-04-07 16:55:00,70.0,39.0,-100.00,South,189,14.0,21.0,32,0.00,,,0.00,543.000000,,2013-04-07 20:55:00,
2013-04-07 17:04:00,70.0,39.0,-100.00,South,189,14.0,21.0,32,0.00,,,0.00,543.000000,,2013-04-07 21:04:00,
2013-04-07 17:13:00,71.0,39.0,-100.00,South,186,13.0,21.0,31,0.00,,,0.00,473.000000,,2013-04-07 21:13:00,
2013-04-07 17:35:00,71.0,39.0,-100.00,South,186,13.0,21.0,31,0.00,,,0.00,473.000000,,2013-04-07 21:35:00,
2013-04-07 17:45:00,71.0,39.0,-100.00,South,186,13.0,21.0,31,0.00,,,0.00,473.000000,,2013-04-07 21:45:00,
2013-04-07 17:55:00,71.0,39.0,-100.00,South,186,13.0,21.0,31,0.00,,,0.00,473.000000,,2013-04-07 21:55:00,
2013-04-07 18:05:00,71.0,39.0,-100.00,South,186,13.0,21.0,31,0.00,,,0.00,473.000000,,2013-04-07 22:05:00,
2013-04-07 18:13:00,70.0,39.0,-100.00,South,181,12.0,20.0,32,0.00,,,0.00,295.000000,,2013-04-07 22:13:00,
2013-04-07 18:44:00,70.0,39.0,-100.00,South,181,12.0,20.0,32,0.00,,,0.00,295.000000,,2013-04-07 22:44:00,
2013-04-07 18:54:00,70.0,39.0,-100.00,South,181,12.0,20.0,32,0.00,,,0.00,295.000000,,2013-04-07 22:54:00,
2013-04-07 19:04:00,70.0,39.0,-100.00,South,181,12.0,20.0,32,0.00,,,0.00,295.000000,,2013-04-07 23:04:00,
2013-04-07 19:13:00,67.0,39.0,-100.00,South,182,8.0,17.0,36,0.00,,,0.00,52.000000,,2013-04-07 23:13:00,
2013-04-07 19:43:00,67.0,39.0,-100.00,South,182,8.0,17.0,36,0.00,,,0.00,52.000000,,2013-04-07 23:43:00,
2013-04-07 19:53:00,67.0,39.0,-100.00,South,182,8.0,17.0,36,0.00,,,0.00,52.000000,,2013-04-07 23:53:00,
2013-04-07 20:03:00,67.0,39.0,-100.00,South,182,8.0,17.0,36,0.00,,,0.00,52.000000,,2013-04-08 00:03:00,
2013-04-07 20:13:00,65.0,39.0,-100.00,South,186,8.0,13.0,38,0.00,,,-99.99,6.000000,,2013-04-08 00:13:00,
2013-04-07 20:33:00,65.0,39.0,-100.00,South,186,8.0,13.0,38,0.00,,,-99.99,6.000000,,2013-04-08 00:33:00,
2013-04-07 20:43:00,65.0,39.0,-100.00,South,186,8.0,13.0,38,0.00,,,-99.99,6.000000,,2013-04-08 00:43:00,
2013-04-07 20:53:00,65.0,39.0,-100.00,South,186,8.0,13.0,38,0.00,,,-99.99,6.000000,,2013-04-08 00:53:00,
2013-04-07 21:03:00,65.0,39.0,-100.00,South,186,8.0,13.0,38,0.00,,,-99.99,6.000000,,2013-04-08 01:03:00,
2013-04-07 21:45:00,65.0,40.0,-100.00,SW,221,4.0,11.0,40,0.00,,,0.00,0.000000,,2013-04-08 01:45:00,
2013-04-07 21:55:00,65.0,40.0,-100.00,SW,221,4.0,11.0,40,0.00,,,0.00,0.000000,,2013-04-08 01:55:00,
2013-04-07 22:03:00,65.0,40.0,-100.00,SW,221,4.0,11.0,40,0.00,,,0.00,0.000000,,2013-04-08 02:03:00,
2013-04-07 22:12:00,65.0,40.0,-100.00,SW,221,4.0,11.0,40,0.00,,,0.00,0.000000,,2013-04-08 02:12:00,
2013-04-07 22:13:00,63.0,42.0,-100.00,SSW,209,5.0,7.0,46,0.00,,,0.00,0.000000,,2013-04-08 02:13:00,
2013-04-07 22:49:00,63.0,42.0,-100.00,SSW,209,5.0,7.0,46,0.00,,,0.00,0.000000,,2013-04-08 02:49:00,
2013-04-07 22:55:00,63.0,42.0,-100.00,SSW,209,5.0,7.0,46,0.00,,,0.00,0.000000,,2013-04-08 02:55:00,
2013-04-07 23:08:00,63.0,42.0,-100.00,SSW,209,5.0,7.0,46,0.00,,,0.00,0.000000,,2013-04-08 03:08:00,
2013-04-07 23:13:00,62.0,40.0,-100.00,ENE,72,2.0,10.0,44,0.00,,,0.00,0.000000,,2013-04-08 03:13:00,
2013-04-07 23:58:00,62.0,40.0,-100.00,ENE,72,2.0,10.0,44,0.00,,,0.00,0.000000,,2013-04-08 03:58:00,